Time,TemperatureF,DewpointF,PressureIn,WindDirection,WindDirectionDegrees,WindSpeedMPH,WindSpeedGustMPH,Humidity,HourlyPrecipIn,Conditions,Clouds,dailyrainin,SoftwareType,DateUTC
2013-03-15 00:02:00,50.0,33.0,-100.00,WNW,285,6.0,10.0,51,-99.99,,,-99.99,,2013-03-15 07:02:00,
2013-03-15 00:10:00,47.0,34.0,-100.00,West,275,5.0,9.0,60,-99.99,,,-99.99,,2013-03-15 07:10:00,
2013-03-15 01:02:00,47.0,34.0,-100.00,West,275,5.0,9.0,60,-99.99,,,-99.99,,2013-03-15 08:02:00,
2013-03-15 02:02:00,46.0,34.0,-100.00,West,280,7.0,12.0,62,-99.99,,,-99.99,,2013-03-15 09:02:00,
2013-03-15 02:10:00,44.0,34.0,-100.00,West,260,12.0,17.0,67,-99.99,,,-99.99,,2013-03-15 09:10:00,
2013-03-15 02:12:00,46.0,34.0,-100.00,West,280,7.0,12.0,62,-99.99,,,-99.99,,2013-03-15 09:12:00,
2013-03-15 03:02:00,44.0,34.0,-100.00,West,260,12.0,17.0,67,-99.99,,,-99.99,,2013-03-15 10:02:00,
2013-03-15 04:02:00,44.0,34.0,-100.00,WNW,300,7.0,13.0,67,-99.99,,,-99.99,,2013-03-15 11:02:00,
2013-03-15 04:12:00,44.0,34.0,-100.00,WNW,300,7.0,13.0,67,-99.99,,,-99.99,,2013-03-15 11:12:00,
2013-03-15 05:02:00,44.0,34.0,-100.00,WNW,295,6.0,13.0,67,-99.99,,,-99.99,,2013-03-15 12:02:00,
2013-03-15 05:10:00,41.0,34.0,-100.00,NW,315,1.0,3.0,75,-99.99,,,-99.99,,2013-03-15 12:10:00,
2013-03-15 06:02:00,41.0,34.0,-100.00,NW,315,1.0,3.0,75,-99.99,,,-99.99,,2013-03-15 13:02:00,
2013-03-15 07:02:00,41.0,35.0,-100.00,NNW,330,2.0,10.0,79,-99.99,,,-99.99,,2013-03-15 14:02:00,
2013-03-15 07:10:00,40.0,34.0,-100.00,SW,235,1.0,6.0,78,-99.99,,,-99.99,,2013-03-15 14:10:00,
2013-03-15 07:12:00,41.0,35.0,-100.00,NNW,330,2.0,10.0,79,-99.99,,,-99.99,,2013-03-15 14:12:00,
2013-03-15 08:02:00,40.0,34.0,-100.00,SW,235,1.0,6.0,78,-99.99,,,-99.99,,2013-03-15 15:02:00,
2013-03-15 09:20:00,45.0,38.0,-100.00,North,350,2.0,6.0,76,-99.99,,,-99.99,,2013-03-15 16:20:00,
2013-03-15 10:02:00,45.0,38.0,-100.00,North,350,2.0,6.0,76,-99.99,,,-99.99,,2013-03-15 17:02:00,
2013-03-15 10:10:00,48.0,38.0,-100.00,NW,305,3.0,5.0,68,-99.99,,,-99.99,,2013-03-15 17:10:00,
2013-03-15 10:12:00,45.0,38.0,-100.00,North,350,2.0,6.0,76,-99.99,,,-99.99,,2013-03-15 17:12:00,
2013-03-15 11:02:00,48.0,38.0,-100.00,NW,305,3.0,5.0,68,-99.99,,,-99.99,,2013-03-15 18:02:00,
2013-03-15 12:02:00,60.0,40.0,-100.00,North,5,1.0,5.0,47,-99.99,,,-99.99,,2013-03-15 19:02:00,
2013-03-15 12:12:00,60.0,40.0,-100.00,North,5,1.0,5.0,47,-99.99,,,-99.99,,2013-03-15 19:12:00,
2013-03-15 13:02:00,64.0,37.0,-100.00,ENE,60,1.0,7.0,36,-99.99,,,-99.99,,2013-03-15 20:02:00,
2013-03-15 13:10:00,64.0,35.0,-100.00,NW,325,5.0,12.0,33,-99.99,,,-99.99,,2013-03-15 20:10:00,
2013-03-15 14:02:00,64.0,35.0,-100.00,NW,325,5.0,12.0,33,-99.99,,,-99.99,,2013-03-15 21:02:00,
2013-03-15 15:03:00,64.0,34.0,-100.00,NNW,345,6.0,12.0,32,-99.99,,,-99.99,,2013-03-15 22:03:00,
2013-03-15 15:10:00,61.0,33.0,-100.00,NNW,335,5.0,10.0,34,-99.99,,,-99.99,,2013-03-15 22:10:00,
2013-03-15 15:13:00,64.0,34.0,-100.00,NNW,345,6.0,12.0,32,-99.99,,,-99.99,,2013-03-15 22:13:00,
2013-03-15 16:02:00,61.0,33.0,-100.00,NNW,335,5.0,10.0,34,-99.99,,,-99.99,,2013-03-15 23:02:00,
2013-03-15 17:02:00,62.0,34.0,-100.00,WNW,285,6.0,9.0,34,-99.99,,,-99.99,,2013-03-16 00:02:00,
2013-03-15 17:12:00,62.0,34.0,-100.00,WNW,285,6.0,9.0,34,-99.99,,,-99.99,,2013-03-16 00:12:00,
2013-03-15 18:02:00,61.0,34.0,-100.00,North,10,5.0,13.0,36,-99.99,,,-99.99,,2013-03-16 01:02:00,
2013-03-15 18:10:00,58.0,34.0,-100.00,NNW,340,2.0,5.0,40,-99.99,,,-99.99,,2013-03-16 01:10:00,
2013-03-15 19:02:00,58.0,34.0,-100.00,NNW,340,2.0,5.0,40,-99.99,,,-99.99,,2013-03-16 02:02:00,
2013-03-15 20:02:00,55.0,32.0,-100.00,NW,320,5.0,12.0,41,-99.99,,,-99.99,,2013-03-16 03:02:00,
2013-03-15 20:10:00,52.0,32.0,-100.00,NW,320,1.0,5.0,46,-99.99,,,-99.99,,2013-03-16 03:10:00,
2013-03-15 20:12:00,55.0,32.0,-100.00,NW,320,5.0,12.0,41,-99.99,,,-99.99,,2013-03-16 03:12:00,
2013-03-15 21:02:00,52.0,32.0,-100.00,NW,320,1.0,5.0,46,-99.99,,,-99.99,,2013-03-16 04:02:00,
2013-03-15 22:02:00,49.0,34.0,-100.00,West,270,6.0,7.0,56,-99.99,,,-99.99,,2013-03-16 05:02:00,
2013-03-15 22:12:00,49.0,34.0,-100.00,West,270,6.0,7.0,56,-99.99,,,-99.99,,2013-03-16 05:12:00,
2013-03-15 22:20:00,46.0,34.0,-100.00,WNW,290,7.0,9.0,62,-99.99,,,-99.99,,2013-03-16 05:20:00,
2013-03-15 23:02:00,46.0,34.0,-100.00,WNW,290,7.0,9.0,62,-99.99,,,-99.99,,2013-03-16 06:02:00,
2013-03-15 23:10:00,45.0,35.0,-100.00,NW,305,6.0,10.0,67,-99.99,,,-99.99,,2013-03-16 06:10:00,
2013-03-15 23:12:00,46.0,34.0,-100.00,WNW,290,7.0,9.0,62,-99.99,,,-99.99,,2013-03-16 06:12:00,